Weather reports worldwide

Advertisment
Williamsport PA, United States of America (72514): temperature & dewpoint: 22.02.2020 03:00:00 - 28.02.2020 03:00:00 (EST)Williamsport PA, United States of America (72514): wind speed & gusts: 22.02.2020 03:00:00 - 28.02.2020 03:00:00 (EST)Williamsport PA, United States of America (72514): wind direction: 22.02.2020 03:00:00 - 28.02.2020 03:00:00 (EST)Williamsport PA, United States of America (72514): reduced air pressure: 22.02.2020 03:00:00 - 28.02.2020 03:00:00 (EST)Williamsport PA, United States of America (72514): visibility: 22.02.2020 03:00:00 - 28.02.2020 03:00:00 (EST)Williamsport PA, United States of America (72514): precipitation: 22.02.2020 03:00:00 - 28.02.2020 03:00:00 (EST)
Date & Time tt [°C] td [°C] ff [km/h] ff [kn] fx [km/h] fx [kn] dd ppp [hPa] vv [km] rr [mm]
28.02.2020 03:00:00 -4,4 -9,4 11 6 - - NW 1010,2 16 -
28.02.2020 02:00:00 -4,4 -9,4 18 10 50 27 NNW 1010,2 16 -
28.02.2020 01:00:00 -3,3 -10,0 21 11 50 27 WNW 1010,3 16 0,0
28.02.2020 00:00:00 -2,8 -10,0 34 18 55 30 W 1010,5 11 0,0
27.02.2020 23:00:00 -3,3 -8,3 18 10 - - W 1010,1 11 0,0
27.02.2020 22:00:00 -2,2 -10,6 22 12 - - W 1010,0 16 -
27.02.2020 21:00:00 -2,2 -11,1 31 17 50 27 W 1010,1 16 -
27.02.2020 20:00:00 -2,2 -12,8 21 11 50 27 WSW 1009,7 16 -
27.02.2020 19:00:00 -2,2 -10,6 29 16 50 27 W 1009,5 15 0,0
27.02.2020 18:00:00 -1,7 -10,6 21 11 48 26 W 1008,6 15 0,0
27.02.2020 17:00:00 -1,1 -10,6 24 13 63 34 W 1007,8 16 0,0
27.02.2020 16:00:00 -1,1 -10,0 34 18 55 30 W 1007,4 16 -
27.02.2020 15:00:00 -0,6 -11,7 39 21 61 33 W 1006,6 16 -
27.02.2020 14:00:00 0,0 -10,6 35 19 61 33 W 1005,9 16 -
27.02.2020 13:00:00 1,1 -9,4 41 22 61 33 WSW 1005,0 16 -
27.02.2020 12:00:00 1,1 -9,4 35 19 61 33 W 1004,6 16 -
27.02.2020 11:00:00 0,0 -8,3 35 19 59 32 W 1004,2 16 -
27.02.2020 10:00:00 0,0 -8,3 21 11 57 31 W 1003,3 16 -
27.02.2020 09:00:00 -0,6 -7,8 44 24 63 34 W 1002,4 16 0,0
27.02.2020 08:00:00 -0,6 -5,6 28 15 54 29 W 1001,6 8 0,0
27.02.2020 07:00:00 0,6 -4,4 18 10 50 27 WNW 1000,0 16 -
27.02.2020 06:00:00 1,1 -3,3 28 15 50 27 W 998,7 15 0,0
27.02.2020 05:00:00 1,7 -0,6 29 16 48 26 W 997,7 10 0,8
27.02.2020 04:00:00 2,8 0,6 22 12 - - W 997,6 16 0,8
27.02.2020 03:00:00 3,3 1,1 15 8 - - W 997,8 16 1,5
27.02.2020 02:00:00 3,9 2,2 21 11 - - W 998,3 15 0,5
27.02.2020 01:00:00 5,0 2,8 22 12 - - W 998,1 13 4,8
27.02.2020 00:00:00 5,0 3,3 18 10 50 27 W 998,7 11 3,0
26.02.2020 23:00:00 7,8 5,6 22 12 - - E 998,6 16 2,8
26.02.2020 22:00:00 8,3 5,6 24 13 - - ESE 1000,0 16 0,0
26.02.2020 21:00:00 8,3 5,6 28 15 - - ESE 1001,7 16 0,0
26.02.2020 20:00:00 8,3 6,7 24 13 - - E 1003,2 15 0,3
26.02.2020 19:00:00 8,9 6,1 21 11 - - E 1005,1 15 0,0
26.02.2020 18:00:00 9,4 6,1 18 10 - - E 1006,0 16 -
26.02.2020 17:00:00 9,4 6,7 15 8 - - ESE 1007,3 16 -
26.02.2020 16:00:00 10,0 6,7 9 5 - - SE 1008,3 16 -
26.02.2020 15:00:00 10,0 7,2 18 10 - - SE 1008,5 13 -
26.02.2020 14:00:00 8,9 7,2 11 6 - - ENE 1009,3 6 -
26.02.2020 13:00:00 8,9 7,2 5 3 - - - 1010,5 4,8 0,0
26.02.2020 12:00:00 8,3 6,7 13 7 - - ENE 1011,6 6 -
26.02.2020 11:00:00 7,2 6,1 16 9 - - ENE 1011,9 4,0 -
26.02.2020 10:00:00 6,7 5,6 11 6 - - ENE 1012,3 4,0 -
26.02.2020 09:00:00 5,0 4,4 0 0 - - N 1012,8 2,0 -
26.02.2020 08:00:00 4,4 3,9 0 0 - - N 1012,4 2,0 -
26.02.2020 07:00:00 4,4 3,3 0 0 - - N 1011,7 2,4 -
26.02.2020 06:00:00 4,4 3,3 0 0 - - N 1011,7 2,4 -
26.02.2020 05:00:00 4,4 3,9 0 0 - - N 1011,5 2,4 -
26.02.2020 04:00:00 4,4 3,9 0 0 - - N 1011,5 2,8 -
26.02.2020 03:00:00 5,0 3,9 0 0 - - N 1011,8 4,8 0,3
26.02.2020 02:00:00 5,0 4,4 0 0 - - N 1012,2 2,8 0,3
26.02.2020 01:00:00 5,0 4,4 0 0 - - N 1011,8 4,8 -
26.02.2020 00:00:00 5,6 4,4 5 3 - - WSW 1011,8 4,0 -
25.02.2020 23:00:00 5,6 5,0 0 0 - - N 1012,2 4,0 -
25.02.2020 22:00:00 6,1 5,0 0 0 - - N 1012,0 11 0,0
25.02.2020 21:00:00 6,1 5,0 0 0 - - N 1011,9 10 0,0
25.02.2020 20:00:00 6,1 5,0 0 0 - - N 1011,5 13 0,0
25.02.2020 19:00:00 7,2 3,9 0 0 - - N 1011,1 16 0,0
25.02.2020 18:00:00 8,3 3,9 8 4 - - E 1010,1 16 -
25.02.2020 17:00:00 8,9 3,3 9 5 - - E 1009,5 16 -
25.02.2020 16:00:00 9,4 3,3 11 6 - - E 1009,1 16 0,0
25.02.2020 15:00:00 10,0 3,3 13 7 - - E 1009,0 16 0,0
25.02.2020 14:00:00 10,0 2,2 9 5 - - E 1009,3 16 -
25.02.2020 13:00:00 8,9 2,8 0 0 - - N 1009,7 16 0,0
25.02.2020 12:00:00 8,3 3,3 0 0 - - N 1010,5 16 0,0
25.02.2020 11:00:00 7,2 2,2 5 3 - - NE 1010,8 16 0,0
25.02.2020 10:00:00 6,7 1,1 0 0 - - N 1010,6 16 -
25.02.2020 09:00:00 5,6 1,1 0 0 - - N 1010,8 16 -
25.02.2020 08:00:00 4,4 1,1 0 0 - - N 1010,8 16 -
25.02.2020 07:00:00 3,3 0,6 5 3 - - W 1010,7 16 -
25.02.2020 06:00:00 3,9 0,0 0 0 - - N 1010,5 16 0,0
25.02.2020 05:00:00 3,9 -0,6 5 3 - - - 1010,7 13 0,3
25.02.2020 04:00:00 4,4 -1,7 0 0 - - N 1011,1 16 -
25.02.2020 03:00:00 4,4 -1,7 0 0 - - N 1011,5 16 0,0
25.02.2020 02:00:00 5,6 -2,8 5 3 - - N 1011,3 16 -
25.02.2020 01:00:00 5,0 -2,2 0 0 - - N 1011,0 16 0,0
25.02.2020 00:00:00 5,0 -2,2 0 0 - - N 1011,3 16 -
24.02.2020 23:00:00 6,1 -2,8 0 0 - - N 1012,0 16 -
24.02.2020 22:00:00 7,2 -3,3 0 0 - - N 1013,2 16 -
24.02.2020 21:00:00 7,2 -2,8 0 0 - - N 1012,8 16 -
24.02.2020 20:00:00 8,3 -3,9 0 0 - - N 1012,9 16 -
24.02.2020 19:00:00 11,1 -6,1 5 3 - - S 1012,9 16 0,0
24.02.2020 18:00:00 12,2 -6,1 15 8 - - SSE 1013,2 16 -
24.02.2020 17:00:00 12,8 -5,6 15 8 - - SE 1012,7 16 -
24.02.2020 16:00:00 13,9 -5,6 15 8 - - ESE 1012,5 16 -
24.02.2020 15:00:00 14,4 -5,6 16 9 - - SE 1013,4 16 -
24.02.2020 14:00:00 13,3 -6,1 5 3 - - - 1014,2 16 -
24.02.2020 13:00:00 13,3 -5,6 16 9 - - SE 1015,3 16 0,0
24.02.2020 12:00:00 12,2 -6,1 0 0 - - N 1016,2 16 -
24.02.2020 11:00:00 7,2 -5,0 9 5 - - SE 1016,7 16 -
24.02.2020 10:00:00 3,9 -5,6 0 0 - - N 1017,5 16 -
24.02.2020 09:00:00 1,1 -5,0 0 0 - - N 1017,5 16 -
24.02.2020 08:00:00 -1,7 -5,6 0 0 - - N 1017,4 16 -
24.02.2020 07:00:00 -2,8 -6,7 0 0 - - N 1017,3 16 0,0
24.02.2020 06:00:00 -2,8 -6,7 0 0 - - N 1017,5 16 -
24.02.2020 05:00:00 -2,2 -6,7 0 0 - - N 1017,3 16 -
24.02.2020 04:00:00 -1,7 -6,7 5 3 - - WNW 1016,7 16 -
24.02.2020 03:00:00 -1,1 -6,1 0 0 - - N 1016,9 16 -
24.02.2020 02:00:00 0,0 -5,6 0 0 - - N 1017,2 16 -
24.02.2020 01:00:00 1,1 -6,1 0 0 - - N 1017,4 16 0,0
24.02.2020 00:00:00 3,3 -6,1 0 0 - - N 1017,4 16 -
23.02.2020 23:00:00 4,4 -6,1 8 4 - - N 1017,4 16 -
23.02.2020 22:00:00 5,0 -6,1 5 3 - - NNW 1017,7 16 -
23.02.2020 21:00:00 5,6 -7,8 0 0 - - N 1017,5 16 -
23.02.2020 20:00:00 9,4 -9,4 8 4 - - NW 1017,5 16 -
23.02.2020 19:00:00 10,6 -11,7 15 8 - - S 1017,3 16 0,0
23.02.2020 18:00:00 10,6 -12,2 11 6 - - S 1017,1 16 -
23.02.2020 17:00:00 10,6 -8,9 9 5 - - SSE 1017,3 16 -
23.02.2020 16:00:00 12,8 -12,2 8 4 - - W 1017,6 16 -
23.02.2020 15:00:00 12,2 -10,6 5 3 - - - 1018,2 16 -
23.02.2020 14:00:00 11,7 -10,0 5 3 - - NNE 1019,0 16 -
23.02.2020 13:00:00 9,4 -10,0 8 4 - - SSE 1020,3 16 0,0
23.02.2020 12:00:00 7,2 -10,6 5 3 - - - 1021,7 16 -
23.02.2020 11:00:00 3,9 -9,4 0 0 - - N 1022,8 16 -
23.02.2020 10:00:00 0,6 -8,9 0 0 - - N 1023,8 16 -
23.02.2020 09:00:00 -2,2 -6,7 0 0 - - N 1024,2 16 -
23.02.2020 08:00:00 -5,0 -8,3 0 0 - - N 1024,5 16 -
23.02.2020 07:00:00 -6,7 -9,4 0 0 - - N 1024,4 16 0,0
23.02.2020 06:00:00 -6,1 -9,4 0 0 - - N 1024,2 16 -
23.02.2020 05:00:00 -5,6 -8,9 5 3 - - W 1023,8 16 -
23.02.2020 04:00:00 -5,0 -8,9 0 0 - - N 1023,5 16 -
23.02.2020 03:00:00 -5,0 -9,4 0 0 - - N 1023,5 16 -
23.02.2020 02:00:00 -5,0 -8,9 0 0 - - N 1023,8 16 -
23.02.2020 01:00:00 -3,9 -8,9 0 0 - - N 1023,8 16 0,0
23.02.2020 00:00:00 -3,3 -8,9 0 0 - - N 1023,6 16 -
22.02.2020 23:00:00 -2,2 -8,9 0 0 - - N 1023,9 16 -
22.02.2020 22:00:00 -1,7 -8,9 0 0 - - N 1023,8 16 -
22.02.2020 21:00:00 -0,6 -9,4 0 0 - - N 1023,5 16 -
22.02.2020 20:00:00 1,1 -10,6 0 0 - - N 1023,3 16 -
22.02.2020 19:00:00 3,3 -12,2 0 0 - - N 1022,8 16 0,0
22.02.2020 18:00:00 6,1 -13,3 9 5 - - W 1021,8 16 -
22.02.2020 17:00:00 9,4 -13,9 21 11 - - WSW 1021,4 16 -
22.02.2020 16:00:00 10,6 -13,9 18 10 - - WSW 1021,4 16 -
22.02.2020 15:00:00 10,0 -14,4 24 13 - - WSW 1022,0 16 -
22.02.2020 14:00:00 8,9 -14,4 16 9 - - W 1022,6 16 -
22.02.2020 13:00:00 7,2 -13,3 22 12 - - W 1023,8 16 0,0
22.02.2020 12:00:00 5,6 -13,3 22 12 - - W 1025,0 16 -
22.02.2020 11:00:00 2,8 -12,8 22 12 - - W 1025,9 16 -
22.02.2020 10:00:00 1,1 -12,8 28 15 - - W 1026,6 16 -
22.02.2020 09:00:00 0,0 -11,1 16 9 - - W 1027,0 16 -
22.02.2020 08:00:00 -5,6 -10,6 0 0 - - N 1027,1 16 -
22.02.2020 07:00:00 -5,6 -11,7 0 0 - - N 1026,7 16 0,0
22.02.2020 06:00:00 -5,0 -12,8 8 4 - - W 1026,6 16 -
22.02.2020 05:00:00 -2,8 -12,2 13 7 - - W 1026,4 16 -
22.02.2020 04:00:00 -2,2 -12,8 9 5 - - W 1026,3 16 -
22.02.2020 03:00:00 -2,2 -12,2 11 6 - - W 1025,8 16 -

tt = temperature
td = dewpoint
ff = wind speed
fx = gusts
dd = wind direction
ppp = reduced air pressure
vv = visibility
rr = precipitation

Next stations